Погода в Кибинцах

Украина / Полтавская область     49°57′20″N   33°27′16″E
темп.,
°C
ветер,
м/с
пор.,
м/с
влажн.,
%
обл.,
%
осадки,
мм/ч
давл.,
гПа
погр.,
м
15 апреля, чт
чт1500:00+10юз2493100 4.0 1014190
03:00+9зюз2491100 6.0 1013216
06:00+9ююв2390100 0.4 1013139
09:00+10ю347399 0.5 1013426
12:00+13юв345699 0.0 10121420
15:00+14ююв3356100 0.3 10111242
18:00+13ююв236399 1.1 1010864
21:00+9ю358585 1.6 1011137
16 апреля, пт
пт1600:00+9юв2491100 0.8 1010301
03:00+8ююв6995100 7.1 1010529
06:00+7ююв4796100 3.6 1011385
09:00+8ю5889100 3.9 1012674
12:00+11ю787699 0.7 1013954
15:00+11ю7868100 1.9 10131317
18:00+8ю577957 0.3 1015762
21:00+6ююз368797 0.3 1016225
17 апреля, сб
сб1700:00+4ю359553 0.0 1017149
03:00+3ююв249631 0.0 101894
06:00+4ююв1291100 0.0 1018114
09:00+6юз1290100 0.1 1020314
12:00+6з4487100 0.1 1021611
15:00+9з4568100 0.1 10211191
18:00+8з467033 0.1 1021922
21:00+5зсз348635 0.1 102260
18 апреля, вс
вс1800:00+6сз2384100 0.0 102273
03:00+5сз22855 0.0 102148
06:00+3зсз349234 0.0 102059
09:00+7зсз22755 0.0 1020379
12:00+11зсз21575 0.0 10201116
15:00+13ссз325167 0.0 10191488
18:00+11ссв3463100 0.0 1019159
21:00+9св3576100 0.1 1020163
19 апреля, пн
пн1900:00+9всв2378100 0.0 102092
03:00+7всв338491 0.0 102056
06:00+7св3588100 0.0 1020203
09:00+9всв457795 0.0 1020579
12:00+13всв4454100 0.0 10191642
15:00+13св6655100 0.1 10171504
18:00+12св796695 0.0 1017759
21:00+10всв71471100 0.0 1015565